Location: Houston
(29.7631°N, 95.3631°W)
Time: 07:14:08
(UTC-05:00)

ISS - Visible Passes

Search period start: 20 March 2019 00:00
Search period end: 30 March 2019 00:00
Orbit: 406 x 411 km, 51.6° (Epoch: 20 March)

Date Brightness Start Highest point End Pass type
(mag) Time Alt. Az. Time Alt. Az. Time Alt. Az.
20 Mar -1.4 21:25:05 10° W 21:27:36 20° NW 21:28:02 20° NNW visible
21 Mar -2.5 20:33:24 10° WSW 20:36:30 39° NW 20:39:38 10° NNE visible
23 Mar -0.9 20:29:08 10° WNW 20:31:10 15° NW 20:33:13 10° N visible
